Date,TemperatureHighF,TemperatureAvgF,TemperatureLowF,DewpointHighF,DewpointAvgF,DewpointLowF,HumidityHigh,HumidityAvg,HumidityLow,PressureMaxIn,PressureMinIn,WindSpeedMaxMPH,WindSpeedAvgMPH,GustSpeedMaxMPH,PrecipitationSumIn
2013-4-1,63.9,56.2,50.2,51.3,36.1,11.1,76,52,13,30.08,29.99,9,2,9,0.51
2013-4-2,63.5,54.0,47.8,45.2,32.8,21.7,68,47,21,30.11,30.02,8,2,8,0.00
2013-4-3,73.2,55.7,49.5,48.7,33.9,7.8,75,51,9,30.05,29.93,8,2,8,0.00
2013-4-4,60.4,55.8,50.4,54.2,47.7,37.3,85,75,44,30.05,29.90,11,4,11,0.43
2013-4-5,62.1,56.7,52.9,57.0,43.7,23.4,92,66,24,30.11,30.02,10,3,10,0.00
2013-4-6,60.8,55.7,52.0,54.0,43.4,27.7,85,66,30,30.14,30.08,10,3,10,0.00
2013-4-7,61.7,54.7,50.9,48.4,34.8,15.6,82,50,19,30.11,30.11,17,4,17,0.00
2013-4-8,68.0,53.8,44.8,42.7,9.2,0.8,72,18,10,30.11,30.11,19,5,21,0.00
2013-4-9,76.6,60.8,47.7,15.5,8.2,2.3,27,13,8,30.11,30.11,19,4,19,0.00
2013-4-10,80.2,66.2,55.4,29.7,10.8,5.1,35,13,7,30.11,30.11,10,3,10,0.00
2013-4-11,71.8,58.2,47.8,32.2,18.6,6.0,47,25,9,30.11,30.11,10,2,10,0.00
2013-4-12,68.7,55.5,46.9,36.8,21.0,6.7,53,30,10,30.11,30.11,9,2,9,0.00
2013-4-13,68.9,56.0,47.5,33.8,16.4,2.5,53,26,10,30.11,30.11,10,3,10,0.00
2013-4-14,67.5,54.1,44.8,31.3,8.8,-0.2,49,18,10,30.11,30.11,14,3,14,0.00
2013-4-15,59.7,49.8,43.2,38.9,13.6,-0.2,69,28,12,30.11,30.11,17,4,17,0.00
2013-4-16,68.5,53.2,41.4,9.7,4.8,-0.6,23,14,10,30.11,30.11,12,3,12,0.00
2013-4-17,69.6,58.6,50.5,10.5,5.9,2.5,14,12,10,30.11,30.11,16,4,16,0.00
2013-4-18,73.2,60.7,50.5,10.9,6.6,2.5,15,12,9,30.11,30.11,9,2,9,0.00
2013-4-19,70.5,60.0,48.2,25.7,13.2,2.5,40,18,9,30.11,30.11,10,2,10,0.00
2013-4-20,77.4,62.8,52.2,19.2,8.5,3.7,27,12,8,30.11,30.11,11,3,11,0.00
2013-4-21,82.0,66.3,51.1,26.8,11.3,3.9,37,13,7,30.11,30.11,8,2,8,0.00
2013-4-22,84.9,69.9,61.3,12.3,8.9,6.3,11,9,6,30.11,30.11,6,2,6,0.00
2013-4-23,77.5,62.4,48.7,33.4,12.4,6.0,54,17,8,30.11,30.11,10,3,10,0.00
2013-4-24,59.4,52.3,47.3,41.5,29.6,16.2,67,44,19,30.11,30.11,14,4,14,0.00
2013-4-25,61.0,54.0,49.6,37.4,28.9,14.4,57,40,16,30.11,30.11,13,5,13,0.00
2013-4-26,62.8,53.6,49.3,34.2,26.9,11.1,55,38,13,30.11,30.11,9,4,9,0.00
2013-4-27,65.1,54.2,48.4,41.6,29.2,11.1,71,44,13,30.11,30.11,9,3,9,0.00
2013-4-28,78.1,62.5,48.9,45.4,22.5,2.8,71,32,8,30.11,30.11,6,2,6,0.00
2013-4-29,79.0,69.0,58.5,16.4,9.6,6.0,17,10,7,30.11,30.11,8,2,8,0.00
2013-4-30,75.6,63.9,52.3,33.2,16.9,6.7,46,20,8,30.11,30.11,9,2,9,0.00